Amateur Radio Satellites - All Passes

Search period start: 19 June 2013 07:21
Search period end: 20 June 2013 07:21
Location: Star Dogged Moon Observatory, 29.7756°N, 82.0783°W

Satellite Date Start Highest point End Downlink Frequencies (MHz)
Time Altitude Azimuth
JAS-1B 19 Jun 07:37:19 07:41:04 16° 97° (E) 07:45:06 435.800 - 435.900 CW/SSB
STRAND 1 19 Jun 07:37:33 07:42:30 51° 259° (W) 07:47:30 ?
Hamsat 19 Jun 07:55:11 07:59:12 36° 98° (E) 08:03:10 145.90 MHz
AO-7 19 Jun 08:23:58 08:28:57 18° 302° (WNW) 08:33:55 29.400 - 29.500 MHz
Saudisat 1A 19 Jun 08:41:42 08:46:10 66° 245° (WSW) 08:50:30 436.775 MHz
SO-67 19 Jun 08:54:10 08:57:42 57° 100° (E) 09:01:13 435.3500 MHz FM
JAS-1B 19 Jun 09:25:52 09:31:44 57° 286° (WNW) 09:38:32 435.800 - 435.900 CW/SSB
Hamsat 19 Jun 09:32:32 09:34:54 15° 291° (WNW) 09:37:15 145.90 MHz
HO-68 19 Jun 10:03:51 10:10:02 31° 98° (E) 10:16:10 435.675 MHz FM
Sapphire 19 Jun 10:13:43 10:17:17 17° 55° (NE) 10:20:49 437.095 MHz 1200 baud AX-25 AFSK
JAS-2 19 Jun 10:16:20 10:20:42 26° 97° (E) 10:24:59 435.800 - 435.900 CW/SSB, 435.910 FM
Oscar 11 19 Jun 11:11:12 11:15:35 75° 102° (ESE) 11:19:56 145.825 FM, Beacon 2401.500 USB
PCSat 19 Jun 11:20:59 11:26:26 78° 66° (ENE) 11:31:50 145.825 MHz
SO-50 19 Jun 11:23:04 11:27:33 65° 62° (ENE) 11:31:58 436.795 FM
RS-15 19 Jun 11:39:58 11:51:48 61° 111° (ESE) 12:03:10 29.354 - 29.394 USB, Beacon 29.352 USB
OPAL 19 Jun 11:49:21 11:54:04 42° 102° (ESE) 11:58:48 ?
HO-68 19 Jun 11:51:05 11:57:39 40° 292° (WNW) 12:04:13 435.675 MHz FM
Sapphire 19 Jun 11:55:42 12:00:57 51° 250° (WSW) 12:06:10 437.095 MHz 1200 baud AX-25 AFSK
JAS-2 19 Jun 12:01:28 12:05:41 25° 291° (WNW) 12:09:50 435.800 - 435.900 CW/SSB, 435.910 FM
UOSAT-12 19 Jun 13:04:53 13:07:36 15° 52° (NE) 13:10:19 437.025 FM, 437.400 FM
OPAL 19 Jun 13:29:31 13:32:35 17° 294° (WNW) 13:35:40 ?
Oscar 16 19 Jun 13:31:40 13:35:17 20° 69° (ENE) 13:38:54 437.025 USB, Beacon 2401.1428
Uribyol 2 19 Jun 13:45:09 13:48:45 19° 68° (ENE) 13:52:21 436.500 FM
RS-15 19 Jun 13:54:08 14:04:40 35° 309° (NW) 14:14:55 29.354 - 29.394 USB, Beacon 29.352 USB
Oscar 19 19 Jun 14:24:03 14:29:08 59° 75° (ENE) 14:34:12 437.125 CW, 437.150 USB
UOSAT-12 19 Jun 14:43:34 14:47:58 46° 247° (WSW) 14:52:22 437.025 FM, 437.400 FM
ITAMSAT 1 19 Jun 14:49:05 14:54:17 86° 76° (ENE) 14:59:31 435.822 SSB
AO-27 19 Jun 14:50:13 14:55:25 89° 254° (WSW) 15:00:40 436.795 MHz FM
Oscar 16 19 Jun 15:09:32 15:14:19 38° 261° (W) 15:19:07 437.025 USB, Beacon 2401.1428
Uribyol 2 19 Jun 15:23:03 15:27:53 39° 261° (W) 15:32:46 436.500 FM
AO-Echo 19 Jun 15:26:15 15:30:54 68° 76° (ENE) 15:35:38 ?
AO-7 19 Jun 15:36:42 15:37:43 10° 54° (NE) 15:38:43 29.400 - 29.500 MHz
ISS 19 Jun 15:41:05 15:44:22 88° 315° (NW) 15:47:40 145.800 FM
Uosat F 19 Jun 15:45:57 15:50:32 38° 72° (ENE) 15:55:09 435.120 FM
TMSAT-1 19 Jun 15:47:11 15:51:17 23° 69° (ENE) 15:55:24 436.925 FM
Oscar 19 19 Jun 16:07:04 16:08:45 11° 267° (W) 16:10:25 437.125 CW, 437.150 USB
KITSAT 1 19 Jun 16:09:13 16:13:40 16° 102° (ESE) 16:18:06 435.175 FM
Gurwin Techsat 1B 19 Jun 16:26:17 16:31:35 87° 257° (WSW) 16:36:56 435.225 FM
AO-7 19 Jun 17:20:44 17:28:56 67° 70° (ENE) 17:37:11 29.400 - 29.500 MHz
Uosat F 19 Jun 17:26:06 17:29:24 18° 265° (W) 17:32:42 435.120 FM
TMSAT-1 19 Jun 17:26:16 17:30:58 32° 262° (W) 17:35:42 436.925 FM
KITSAT 1 19 Jun 18:00:04 18:08:06 79° 296° (WNW) 18:16:14 435.175 FM
Hamsat 19 Jun 18:45:13 18:47:16 13° 69° (ENE) 18:49:18 145.90 MHz
AO-7 19 Jun 19:16:22 19:22:06 20° 264° (W) 19:27:54 29.400 - 29.500 MHz
MaSat-1 19 Jun 19:33:29 19:39:26 48° 110° (ESE) 19:44:09 437.345 MHz
PANSAT 19 Jun 19:45:57 19:47:14 11° 153° (SSE) 19:48:31 not established
STRAND 1 19 Jun 19:54:15 19:59:25 90° 97° (E) 20:04:34 ?
KITSAT 1 19 Jun 20:00:37 20:04:45 15° 315° (NW) 20:08:54 435.175 FM
JAS-1B 19 Jun 20:04:24 20:11:47 71° 75° (ENE) 20:18:01 435.800 - 435.900 CW/SSB
Hamsat 19 Jun 20:18:53 20:22:55 39° 262° (W) 20:27:01 145.90 MHz
HO-68 19 Jun 20:30:04 20:32:28 12° 59° (ENE) 20:34:52 435.675 MHz FM
RS-15 19 Jun 20:50:23 21:00:25 38° 52° (NE) 21:10:15 29.354 - 29.394 USB, Beacon 29.352 USB
SO-67 19 Jun 20:57:22 21:00:41 37° 261° (W) 21:04:02 435.3500 MHz FM
MaSat-1 19 Jun 21:17:34 21:21:09 17° 295° (WNW) 21:24:17 437.345 MHz
PANSAT 19 Jun 21:23:33 21:27:08 36° 163° (SSE) 21:30:43 not established
JAS-1B 19 Jun 21:59:12 22:02:27 13° 263° (W) 22:05:31 435.800 - 435.900 CW/SSB
Oscar 11 19 Jun 22:01:05 22:04:46 27° 72° (ENE) 22:08:27 145.825 FM, Beacon 2401.500 USB
JAS-2 19 Jun 22:03:49 22:11:18 64° 74° (ENE) 22:18:05 435.800 - 435.900 CW/SSB, 435.910 FM
HO-68 19 Jun 22:11:57 22:19:05 85° 74° (ENE) 22:26:16 435.675 MHz FM
Saudisat 1A 19 Jun 22:42:59 22:47:27 59° 299° (WNW) 22:51:59 436.775 MHz
OPAL 19 Jun 22:58:43 23:03:23 39° 71° (ENE) 23:08:00 ?
RS-15 19 Jun 23:02:30 23:12:50 51° 251° (WSW) 23:23:10 29.354 - 29.394 USB, Beacon 29.352 USB
PANSAT 19 Jun 23:03:27 23:07:19 70° 175° (S) 23:11:11 not established
Oscar 11 19 Jun 23:37:55 23:40:55 18° 264° (W) 23:43:57 145.825 FM, Beacon 2401.500 USB
ISS 19 Jun 23:50:54 23:54:10 72° 45° (NE) 23:57:27 145.800 FM
JAS-2 19 Jun 23:51:20 23:56:23 19° 264° (W) 00:01:13 435.800 - 435.900 CW/SSB, 435.910 FM
HO-68 20 Jun 00:04:50 00:07:20 12° 267° (W) 00:09:51 435.675 MHz FM
PCSat 20 Jun 00:14:43 00:18:58 24° 106° (ESE) 00:23:15 145.825 MHz
OPAL 20 Jun 00:39:00 00:42:19 18° 262° (W) 00:45:37 ?
PANSAT 20 Jun 00:43:46 00:47:36 62° 188° (S) 00:51:27 not established
Sapphire 20 Jun 00:48:13 00:53:24 50° 110° (ESE) 00:58:37 437.095 MHz 1200 baud AX-25 AFSK
SO-50 20 Jun 01:32:16 01:37:04 88° 297° (WNW) 01:41:50 436.795 FM
Oscar 16 20 Jun 01:52:01 01:52:31 10° 93° (E) 01:53:01 437.025 USB, Beacon 2401.1428
PCSat 20 Jun 01:57:18 02:02:09 33° 300° (WNW) 02:07:02 145.825 MHz
KITSAT 1 20 Jun 02:01:38 02:07:09 19° 49° (NE) 02:12:37 435.175 FM
Uribyol 2 20 Jun 02:06:31 02:07:05 10° 93° (E) 02:07:39 436.500 FM
PANSAT 20 Jun 02:24:25 02:27:43 27° 200° (SSW) 02:31:01 not established
Sapphire 20 Jun 02:33:32 02:37:04 18° 305° (NW) 02:40:38 437.095 MHz 1200 baud AX-25 AFSK
Oscar 19 20 Jun 02:42:14 02:46:52 34° 98° (E) 02:51:29 437.125 CW, 437.150 USB
ITAMSAT 1 20 Jun 03:08:23 03:13:29 52° 101° (E) 03:18:32 435.822 SSB
AO-27 20 Jun 03:09:38 03:14:46 56° 101° (E) 03:19:52 436.795 MHz FM
UOSAT-12 20 Jun 03:11:05 03:13:49 16° 109° (ESE) 03:16:34 437.025 FM, 437.400 FM
Oscar 16 20 Jun 03:27:08 03:32:12 64° 285° (WNW) 03:37:14 437.025 USB, Beacon 2401.1428
AO-Echo 20 Jun 03:39:24 03:44:15 38° 99° (E) 03:49:09 ?
Uribyol 2 20 Jun 03:41:44 03:46:54 66° 285° (WNW) 03:52:01 436.500 FM
KITSAT 1 20 Jun 03:55:13 04:03:22 81° 247° (WSW) 04:11:27 435.175 FM
Uosat F 20 Jun 04:00:36 04:04:15 20° 96° (E) 04:07:52 435.120 FM
TMSAT-1 20 Jun 04:09:56 04:12:53 15° 94° (E) 04:15:49 436.925 FM
Oscar 19 20 Jun 04:22:14 04:25:56 21° 291° (WNW) 04:29:39 437.125 CW, 437.150 USB
Gurwin Techsat 1B 20 Jun 04:48:49 04:54:05 64° 101° (ESE) 04:59:20 435.225 FM
UOSAT-12 20 Jun 04:49:29 04:53:38 36° 301° (WNW) 04:57:50 437.025 FM, 437.400 FM
ITAMSAT 1 20 Jun 04:49:43 04:52:28 15° 294° (WNW) 04:55:13 435.822 SSB
AO-27 20 Jun 04:51:14 04:53:45 14° 294° (WNW) 04:56:17 436.795 MHz FM
AO-Echo 20 Jun 05:19:01 05:22:42 20° 291° (WNW) 05:26:26 ?
AO-7 20 Jun 05:29:52 05:37:09 33° 99° (E) 05:44:22 29.400 - 29.500 MHz
Uosat F 20 Jun 05:38:30 05:43:02 34° 288° (WNW) 05:47:34 435.120 FM
TMSAT-1 20 Jun 05:47:54 05:52:59 49° 286° (WNW) 05:58:03 436.925 FM
KITSAT 1 20 Jun 05:56:04 05:57:33 11° 260° (W) 05:59:02 435.175 FM
MaSat-1 20 Jun 06:04:14 06:06:36 38° 68° (ENE) 06:09:08 437.345 MHz
Gurwin Techsat 1B 20 Jun 06:31:26 06:33:27 12° 295° (WNW) 06:35:28 435.225 FM
STRAND 1 20 Jun 07:04:13 07:09:17 70° 75° (ENE) 07:14:24 ?

Developed and maintained by Chris Peat, Heavens-Above GmbH. Please read the updated FAQ before sending e-mail. Imprint. DLR
